Вернуться в каталог

XTAR-EUR

АктивенВоенныеGEO
NORAD 28542·PAYLOAD·🇺🇸 United States

Запущен Feb 12, 2005 с Guiana Space Centre

Loading…

TLE

СвежийSource: Space-Track

Эпоха: Sep 14, 2026, 03:29 UTC

1 28542U 05005A   26257.14547175 -.00000017  00000-0  00000-0 0  9996
2 28542   4.5665  75.6448 0002928 109.5084 250.8258  0.98998531 79032

Отслеживайте XTAR-EUR в реальном времени с AllMySat

Download on the App Store